Regional Weather Roundup
Issued by NWS Cleveland, OH

Home | Current Version | Previous Version | Text Only | Print | Product List | Glossary Off
Versions: 1 2 3 4 5 6 7 8 9 10 11 12 13 14 15 16 17 18 19 20 21 22 23 24 25 26 27 28 29 30 31 32 33 34 35 36 37 38 39 40 41 42 43 44 45 46 47 48 49 50

000
ASUS41 KCLE 201012
RWRCLE
OHIO REGIONAL WEATHER ROUNDUP
NATIONAL WEATHER SERVICE WILMINGTON, OH
600 AM EDT SUN MAY 20 2018

NOTE: "FAIR" INDICATES FEW OR NO CLOUDS BELOW 12,000 FEET WITH NO
SIGNIFICANT WEATHER AND/OR OBSTRUCTIONS TO VISIBILITY.

OHZ001>008-015>018-024>027-034-035-043-044-201100-
   NORTHWEST OHIO

CITY           SKY/WX    TMP DP  RH WIND       PRES   REMARKS
DEFIANCE       CLOUDY    60  56  86 N7        30.05R
FINDLAY        CLOUDY    61  56  83 W7        30.04R
TOLEDO EXPRESS CLOUDY    61  59  93 NW6       30.04R
TOLEDO EXEC    CLOUDY    62  57  83 NW8       30.05R
LIMA           CLOUDY    59  57  93 NW10      30.05R
$$

OHZ009>014-019>023-028>033-038-089-201100-
   NORTHEAST OHIO

CITY           SKY/WX    TMP DP  RH WIND       PRES   REMARKS
CLE-HOPKINS    CLOUDY    64  61  90 NW9       30.03R
CLE-LAKEFRONT  FOG       57  55  93 NW9       30.00R VSB 1/2
CUY CO. ARPT   NOT AVBL
LORAIN-ELYRIA  CLOUDY    63  56  78 NW16      30.01R
ASHTABULA      CLOUDY    58  58 100 N3        30.01R
AKRON-CANTON   CLOUDY    67  62  84 W8        30.01R
WOOSTER        FAIR      62  60  93 NW3       30.02R FOG
MANSFIELD      CLOUDY    62  61  96 W6        30.03R
YOUNGSTOWN     CLOUDY    65  63  93 W8        29.99R
$$

OHZ042-051>053-060>062-070>072-077>081-201100-
  SOUTHWEST OHIO

CITY           SKY/WX    TMP DP  RH WIND       PRES   REMARKS
CINC-COVINGTON MOCLDY    65  63  93 S6        30.04R FOG
CINC-LUNKEN    FOG       63  63 100 CALM      30.04S VSB 1/2
HAMILTON       FAIR      62  28  27 CALM      30.04R HAZE
DAYTON         FAIR      62  62 100 NW3       30.06R FOG
WRIGHT-PAT AFB CLOUDY    65  63  92 NW5       30.04R
DAYTON GENERAL CLOUDY    69  66  90 CALM      30.04R FOG
WILMINGTON     FAIR      63  63 100 S3        30.04R FOG
$$

OHZ036-037-039>041-045>050-054>059-063>069-073>076-082>088-201100-
  CENTRAL AND SOUTHEAST OHIO

CITY           SKY/WX    TMP DP  RH WIND       PRES   REMARKS
COLUMBUS       FAIR      67  64  90 CALM      30.02R
OSU AIRPORT    CLOUDY    66  65  96 NW7       30.03R FOG
BOLTON FIELD   CLOUDY    66  66 100 W3        30.04R FOG
RICKENBACK AFB FAIR      63  63 100 MISG      30.03R FOG
NEWARK         CLOUDY    68  66  93 SW5       30.01R
MARION         MOCLDY    61  58  90 NW7       30.04R FOG
LANCASTER      FAIR      66  65  96 SW3       30.03R
ZANESVILLE     CLOUDY    66  64  93 SW5       30.02R
NEW PHILLY     CLOUDY    67  65  93 CALM      30.01R
$$




USA.gov is the U.S. government's official web portal to all federal, state and local government web resources and services.